TURKSAT 4B

Last updated on Dec. 5, 2020, 6:14 a.m. UTC

1 40984U 15060A   20339.76107223  .00000131  00000-0  00000-0 0  9997
2 40984   0.0285  73.7697 0002210 172.7381 151.4770  1.00271502 18849
UTC
Height (km)
Latitude
Longitude
Inclination
Orbital Period
UTC large
Height (km)
Speed (km/s)
/
Latitude / Longitude
Inclination (degrees)
Orbital Period (minutes)
Azimuth
Elevation
Range (km)
Doppler Factor
iOS Compass Heading
iOS Angle

Next 30 passes for location: Hong Kong

Rise time Rise Azimuth (degrees) Set time Set Azimuth (degrees) Duration Max altitude (degrees)

No matching passes for this satellites